Theta_e
333 333 333 332 331 331 333 333 332 331 331 331 332 332 332 332 333 333 332 333 333 332 333 335 335 334 333 333 333 334 333 333 333 331 331 332 332 332 333 332 331 332 330 330 331 330 330 329 329 329 329 328 327 327 327 327 327 327 327 326 327 327 327
333 332 332 331 331 331 332 332 330 329 331 332 332 331 331 331 332 332 332 332 332 331 331 333 334 334 333 333 333 334 334 334 333 331 331 332 332 332 332 331 331 331 330 330 329 329 330 329 329 329 328 328 327 326 326 326 326 326 326 326 326 326 326
331 332 331 330 330 330 332 332 330 329 331 332 331 331 331 330 331 331 331 331 332 331 330 331 333 334 334 334 334 335 334 333 333 333 333 333 332 331 331 331 332 330 330 330 328 329 331 330 329 329 328 328 327 326 326 325 325 325 325 325 325 325 325
331 330 330 330 330 330 331 331 330 329 330 331 331 331 330 330 330 330 330 330 331 331 330 330 333 334 334 334 334 335 334 334 333 333 333 332 332 332 331 332 332 330 330 329 328 329 331 330 329 329 328 327 326 326 325 324 324 324 324 325 324 323 322
330 329 329 330 330 330 330 330 329 329 329 329 330 331 330 330 329 330 330 330 331 331 330 330 331 333 334 334 334 333 334 334 333 334 333 331 332 333 332 331 331 331 330 329 329 329 330 329 329 328 328 327 326 325 325 324 323 323 323 323 322 321 319
330 329 328 330 330 330 330 329 329 328 329 329 329 330 330 330 329 329 329 329 330 330 330 329 329 331 333 333 334 333 332 333 333 333 332 330 331 333 331 331 330 330 330 329 329 330 328 329 329 328 327 326 325 324 323 323 322 321 321 320 320 319 318
329 329 329 329 329 330 330 329 329 329 329 329 329 329 329 329 329 329 329 329 329 330 330 329 328 329 331 331 332 333 332 333 333 333 331 330 331 332 331 331 330 328 329 328 328 329 328 329 329 327 326 325 324 323 322 321 320 320 320 319 318 317 316
328 328 329 329 328 330 329 330 330 329 329 329 328 329 329 329 329 329 329 329 329 329 330 330 329 329 329 328 331 333 333 333 333 333 332 332 332 330 329 330 329 328 329 329 328 328 328 329 329 327 325 324 323 322 321 320 320 319 318 318 317 316 314
328 328 330 329 329 330 329 330 329 328 328 328 328 329 329 329 329 329 328 328 328 329 330 329 328 329 329 327 330 332 331 332 333 333 333 333 333 331 329 330 329 328 329 329 328 328 327 328 328 326 324 323 322 322 321 321 320 319 317 317 316 315 314
329 330 330 329 330 330 329 329 329 328 328 328 328 329 329 329 329 328 327 327 327 328 328 328 327 328 328 327 328 329 328 329 331 332 332 333 333 332 331 330 329 328 328 328 327 328 327 327 326 324 323 322 322 321 321 320 319 318 317 316 315 315 314
330 331 330 329 330 330 329 329 328 329 329 328 329 329 329 329 328 327 326 325 325 327 327 327 326 326 326 327 327 327 327 328 328 329 330 332 333 332 332 331 329 328 329 328 328 328 327 325 324 323 321 321 320 320 320 320 319 318 317 316 314 314 314
330 331 330 329 330 329 329 329 328 329 329 328 328 328 328 328 326 326 325 324 324 326 327 326 325 325 325 326 326 325 326 326 326 327 328 330 332 332 332 331 329 329 330 329 329 328 326 323 322 321 320 320 319 319 319 319 318 317 316 315 313 313 312
330 330 329 328 329 329 329 329 328 329 329 328 327 327 328 327 326 326 325 322 322 324 326 326 324 325 324 324 324 324 324 324 325 326 326 327 330 331 331 331 330 330 330 329 328 326 324 322 321 320 320 320 319 318 317 317 317 316 315 314 313 312 312
331 330 328 328 328 328 328 328 328 328 329 328 327 327 327 327 326 326 324 322 321 323 325 325 324 324 323 323 322 322 322 322 323 324 325 325 327 328 330 331 330 329 329 326 325 324 323 322 321 320 320 319 319 319 318 317 317 317 316 314 312 312 312
332 330 328 328 328 328 327 328 328 328 328 328 327 327 327 326 326 325 323 321 320 322 325 324 323 323 323 322 322 322 321 321 322 323 324 324 325 325 326 328 329 327 325 324 323 323 322 321 320 320 320 319 319 319 318 318 317 317 317 316 313 312 312
333 330 328 328 328 328 328 328 329 328 328 328 327 327 327 326 326 325 323 321 320 322 324 323 323 323 322 322 321 320 321 321 322 323 324 324 324 324 324 326 326 325 324 323 322 321 321 320 320 319 319 319 320 319 319 319 318 318 318 317 315 313 312
332 330 328 328 328 328 328 328 328 327 327 327 326 326 326 325 325 324 322 320 318 321 323 323 322 322 321 321 320 320 320 321 322 322 322 323 324 324 324 324 325 324 323 322 322 321 321 320 320 319 319 320 320 320 320 320 319 319 319 319 316 314 313
331 329 328 328 328 328 328 327 327 326 325 325 326 325 324 323 324 323 322 319 317 320 323 322 321 321 320 319 319 318 318 320 321 321 321 322 322 323 323 323 323 323 323 322 322 321 320 320 320 319 319 319 319 320 321 320 320 319 320 320 318 316 315
329 329 328 328 328 328 328 327 326 326 324 324 325 324 323 322 322 322 320 318 317 318 320 321 321 320 319 319 318 317 318 320 320 321 320 320 321 322 322 322 322 322 322 322 321 321 320 320 319 319 320 319 319 319 320 320 320 320 320 320 319 318 316
330 329 328 328 328 328 328 327 326 325 323 323 323 322 322 322 322 321 319 318 317 317 318 319 320 320 319 319 319 319 319 320 320 320 319 319 320 320 320 321 321 321 321 321 321 320 320 320 319 319 320 319 319 319 319 319 319 320 320 320 320 319 318
333 330 328 327 327 327 327 326 326 325 324 322 321 320 321 320 320 320 318 318 318 317 317 318 319 319 318 319 320 320 320 320 320 319 319 319 320 320 320 320 320 321 321 321 322 321 321 320 320 320 320 319 319 319 319 319 319 320 320 320 320 320 319
332 331 328 327 326 326 326 326 326 325 323 321 319 319 319 319 320 320 319 318 318 318 320 319 319 319 319 319 320 320 320 320 319 319 320 320 320 320 320 320 320 321 321 320 320 320 320 321 321 322 321 320 320 320 320 320 320 319 319 319 319 319 319
330 330 329 327 326 326 326 326 326 325 323 321 320 320 319 319 320 320 320 320 320 321 322 321 319 319 320 320 320 320 320 320 320 319 319 319 320 320 321 321 322 321 319 318 318 318 318 318 319 321 321 321 321 321 321 320 320 319 319 319 318 318 318
328 328 328 327 326 326 325 325 324 323 322 321 321 321 320 320 320 321 321 322 322 322 322 320 319 319 319 320 321 321 320 319 320 320 319 320 320 320 320 321 321 319 317 317 317 317 317 317 317 318 319 319 320 320 320 320 321 320 319 319 319 319 319
326 327 327 326 326 326 325 325 324 324 324 323 323 321 322 323 323 323 323 323 322 321 319 318 317 317 317 318 320 321 321 320 319 319 319 319 320 320 320 320 321 320 319 319 319 319 319 318 318 318 319 319 319 319 319 319 320 320 320 320 320 319 319
324 324 324 323 323 323 324 323 323 322 321 322 321 321 322 322 321 320 320 320 320 318 316 315 315 315 315 315 316 317 319 321 321 319 319 319 319 320 320 319 321 322 322 321 321 321 321 320 320 319 319 319 319 319 319 319 319 319 320 320 320 320 320
322 321 320 319 318 319 319 319 318 318 317 317 318 319 321 320 318 316 317 317 317 317 316 315 316 315 315 315 315 314 317 321 322 320 320 320 320 321 321 322 323 323 323 323 322 321 322 322 322 322 321 320 320 320 320 319 319 319 319 319 320 321 321
319 318 317 317 316 316 316 316 317 317 317 316 316 317 319 319 318 316 316 316 316 316 316 317 317 317 316 317 316 316 318 322 321 320 321 321 322 323 323 324 324 323 323 323 322 321 321 322 322 323 323 323 322 322 322 321 321 321 320 320 320 320 321
316 315 315 315 316 315 315 316 316 317 317 316 316 316 317 318 317 315 314 314 315 315 316 317 317 317 318 318 317 318 321 322 321 321 323 323 324 324 324 324 325 324 324 323 322 321 321 322 322 322 322 323 321 320 320 322 323 323 322 321 321 321 321
313 313 313 314 314 314 314 314 315 316 316 315 314 314 314 314 314 312 311 310 311 312 312 313 314 315 315 316 318 320 322 322 321 322 324 325 325 325 324 325 325 324 324 323 322 321 320 320 321 322 322 322 321 319 319 320 321 322 322 322 321 321 321
309 310 310 310 311 311 312 312 312 313 313 313 312 311 311 311 311 310 308 307 306 307 309 312 313 314 314 315 316 318 319 320 321 322 323 324 324 323 322 323 322 321 321 321 320 320 320 319 320 321 321 321 321 320 320 320 320 320 321 321 321 321 320
306 306 307 307 308 308 309 309 310 310 311 310 309 309 308 308 308 307 306 306 306 306 308 311 311 311 311 310 311 313 316 317 318 319 318 318 319 319 318 319 320 319 319 318 318 319 320 320 321 321 321 320 320 319 319 319 320 320 320 320 320 319 318
304 303 304 304 305 306 307 307 307 307 308 307 307 307 308 308 307 307 306 307 308 308 309 310 309 308 307 306 306 308 310 311 310 312 313 313 313 314 315 317 318 318 318 317 316 317 318 319 320 319 319 319 319 319 318 318 319 319 319 320 320 319 318
303 302 302 302 302 303 304 304 305 305 305 306 306 306 306 306 305 305 304 305 305 306 307 306 305 305 303 302 302 303 305 307 308 307 307 308 309 310 312 314 314 315 316 316 315 315 314 313 312 313 314 315 316 316 317 317 317 318 318 319 319 319 319
303 303 303 303 302 302 302 302 303 303 303 304 304 304 305 305 304 304 303 303 303 303 303 302 301 300 299 300 300 299 301 304 305 303 304 306 308 307 308 310 311 311 312 313 312 311 309 305 304 305 306 307 308 310 311 312 313 315 317 318 318 318 317
302 303 303 304 304 304 303 303 303 303 304 304 305 304 305 305 306 305 305 304 304 304 303 302 299 297 296 297 297 296 297 298 299 300 301 304 305 305 307 309 309 309 309 310 309 307 304 301 301 303 304 304 305 306 308 309 310 311 313 316 317 317 316
303 303 303 303 304 304 304 304 304 305 305 306 306 306 305 305 306 306 305 305 305 304 304 303 301 298 297 296 296 296 296 296 296 296 297 300 302 304 305 307 307 307 307 305 304 302 300 299 301 303 304 305 306 306 306 307 307 309 311 312 314 315 315
Wind_Speed
8 7 8 9 10 11 8 9 8 7 7 6 6 6 6 7 7 7 7 7 7 7 8 8 8 9 8 8 7 5 4 4 4 3 4 6 5 5 5 4 2 2 5 8 5 4 5 5 6 8 9 10 11 9 10 10 9 9 9 9 10 10 11
8 9 10 8 10 10 8 8 7 7 7 6 6 6 6 6 6 6 6 6 6 6 7 7 7 8 8 9 8 6 5 4 4 3 4 4 4 4 4 4 3 1 2 7 8 4 4 6 5 6 9 11 10 9 9 9 9 9 8 9 10 11 12
11 11 11 8 11 10 8 8 7 7 7 6 6 6 6 6 5 5 5 6 6 5 6 6 7 7 7 9 8 6 6 5 4 3 3 3 3 3 3 3 3 1 1 4 9 6 3 4 5 6 9 10 9 9 8 8 9 9 8 9 10 11 11
12 12 12 10 12 10 9 9 8 8 7 7 7 6 6 6 5 5 4 4 5 4 5 5 7 7 7 8 8 7 7 6 5 4 4 4 3 4 3 2 2 3 1 0 5 9 6 4 5 6 8 10 10 10 10 9 10 10 9 10 10 11 11
13 14 12 12 12 11 11 10 10 9 9 8 8 7 7 6 5 5 4 4 4 3 4 4 6 6 6 7 8 9 8 7 6 6 5 5 4 4 4 3 3 3 3 2 3 7 10 10 7 6 9 10 10 11 11 10 10 10 10 10 10 11 12
15 14 13 14 13 12 11 11 10 10 10 9 9 8 8 7 6 5 5 4 3 3 4 3 4 5 6 7 7 8 9 8 7 6 6 6 6 5 5 4 3 3 4 4 4 4 8 11 9 7 9 10 10 11 12 12 11 11 10 10 10 10 12
18 16 15 15 13 12 11 11 10 10 10 10 9 9 9 8 7 6 5 4 4 4 4 4 4 4 5 5 5 6 7 7 7 6 6 7 7 7 6 5 5 6 6 7 7 5 5 8 8 8 10 10 10 11 12 12 11 11 11 10 10 10 11
21 17 15 15 14 12 12 11 10 10 9 10 10 10 10 9 8 7 6 5 4 4 4 4 4 4 4 5 5 6 7 7 7 7 6 7 7 7 7 6 6 7 6 7 7 5 5 7 8 9 10 8 8 9 9 10 10 9 10 10 10 10 11
21 16 14 14 14 11 12 11 10 10 9 10 11 10 10 10 8 8 6 5 5 4 5 5 5 4 4 5 5 6 6 6 7 7 7 7 7 7 7 7 7 7 5 6 7 6 7 8 9 10 10 7 6 6 7 7 8 9 9 10 10 10 11
22 16 14 15 14 12 12 11 10 10 10 10 11 11 11 10 9 8 7 6 5 5 5 5 5 5 5 5 5 5 5 6 6 6 6 7 7 8 8 7 7 7 6 7 8 8 8 8 9 10 9 8 7 6 5 5 6 7 9 10 10 11 11
24 20 16 15 14 13 13 12 11 10 10 10 10 11 11 10 10 8 7 6 6 6 6 5 5 6 6 5 6 6 6 6 5 5 5 7 7 8 8 7 7 7 7 10 10 8 9 9 9 9 8 8 8 7 7 6 5 7 8 9 10 11 12
27 22 18 15 14 14 13 12 12 11 11 10 10 11 11 11 10 9 7 7 7 7 6 6 6 6 7 7 6 6 6 6 5 5 5 6 8 9 9 9 9 9 9 11 11 9 10 10 9 7 5 4 4 6 8 8 5 6 7 7 10 12 13
27 22 18 16 15 14 13 13 12 12 11 10 11 11 11 11 10 9 8 7 7 8 8 8 7 7 8 7 6 6 6 6 6 5 5 5 7 9 10 9 10 11 11 12 12 11 10 8 7 7 6 5 4 5 8 9 7 6 7 7 9 11 13
26 22 18 17 16 15 14 13 13 12 11 10 11 11 11 11 11 10 9 8 8 9 9 9 9 8 8 8 7 6 6 6 6 6 6 6 6 7 9 9 10 12 13 13 12 11 9 7 7 8 7 7 6 3 4 9 10 8 7 8 8 11 13
24 22 19 17 17 15 15 14 13 12 11 11 11 11 11 11 11 10 9 8 8 9 10 10 10 9 9 8 8 7 6 6 6 7 7 7 7 7 9 10 11 12 12 12 11 10 9 7 8 9 8 7 7 3 1 5 12 11 8 8 9 10 12
22 22 19 18 17 16 15 14 13 12 11 11 11 11 11 11 11 10 9 8 9 10 10 10 10 10 10 10 9 7 6 6 7 7 8 8 8 8 10 11 11 11 11 10 9 9 8 7 6 8 7 5 6 4 1 1 8 11 10 9 9 10 12
22 22 20 19 18 17 15 14 13 12 12 11 11 10 10 10 10 10 9 9 9 10 11 11 10 10 10 10 9 8 7 8 8 7 8 10 10 9 10 11 10 10 10 8 8 7 7 5 4 5 6 5 5 5 2 2 4 7 10 10 9 10 12
24 23 21 20 18 16 16 14 13 12 12 11 10 10 10 10 10 10 10 9 9 10 11 11 10 10 10 9 8 9 9 9 9 8 8 9 11 10 10 10 10 10 9 8 7 7 6 5 4 4 5 6 6 7 5 4 5 6 7 8 8 9 10
23 22 20 19 18 16 16 15 13 12 12 11 10 10 10 10 10 11 10 10 10 10 11 11 10 10 9 8 8 9 9 9 8 8 8 8 10 10 9 10 10 9 9 8 7 6 6 5 3 3 3 4 3 7 7 5 5 6 7 9 9 10 10
19 21 20 18 18 16 15 14 13 12 12 11 11 10 10 10 10 10 10 9 10 10 10 10 10 9 10 9 8 8 9 9 8 8 8 7 8 8 8 8 8 8 7 7 6 5 5 4 3 2 2 5 2 5 5 5 6 6 7 8 10 11 10
16 19 19 18 18 17 15 15 13 11 11 10 10 10 10 10 10 10 10 9 9 10 9 9 9 9 9 9 9 9 8 9 8 8 7 7 7 7 7 7 7 6 6 5 6 6 4 4 3 2 3 3 1 2 3 5 5 6 6 7 8 10 9
14 17 19 18 18 17 16 15 13 12 11 10 9 9 9 10 9 8 9 9 9 9 8 9 9 8 7 9 9 9 9 9 9 8 7 7 7 6 7 7 6 6 7 6 7 7 6 5 3 2 2 3 2 3 5 5 5 5 6 7 8 9 10
14 15 17 17 17 17 16 15 13 12 11 10 8 8 8 9 8 8 9 9 9 8 7 9 11 8 7 9 8 8 9 8 8 8 8 7 7 6 6 6 5 6 7 7 8 8 8 8 7 3 3 3 3 3 4 5 6 6 7 8 8 9 10
15 14 14 15 16 15 15 15 13 12 11 10 8 7 7 7 6 6 8 9 9 8 6 8 10 8 7 7 5 5 8 8 7 7 7 7 7 6 6 6 6 7 7 7 8 7 7 8 8 6 5 5 5 5 5 5 6 6 7 8 8 9 10
16 15 13 14 14 15 15 16 14 12 12 10 9 8 7 6 7 8 9 10 9 8 7 8 9 7 6 6 4 4 4 6 6 6 6 6 6 6 7 6 6 6 7 7 7 6 6 6 6 6 6 7 7 8 7 7 8 7 8 9 10 11 11
18 18 16 14 15 16 16 16 15 16 15 12 11 10 8 7 6 6 7 7 6 5 6 6 7 5 4 4 3 1 2 2 4 5 5 5 6 5 5 6 6 6 7 8 8 7 7 7 8 9 9 9 9 10 10 11 11 11 11 10 11 12 12
18 18 18 17 17 16 16 15 14 14 15 13 12 12 11 9 8 6 5 5 5 5 5 5 4 4 3 2 4 5 5 4 4 5 4 5 6 5 6 6 7 7 7 6 6 8 9 9 11 12 12 12 14 14 14 15 15 16 16 16 15 15 14
17 16 18 18 16 12 11 11 10 9 9 9 10 10 10 9 9 9 9 8 8 7 6 4 3 2 2 1 3 5 5 5 6 6 6 6 7 7 7 8 8 9 8 5 4 8 12 13 13 14 13 13 13 13 14 16 17 18 18 19 19 18 16
18 17 17 15 13 11 9 9 9 9 9 8 8 8 9 9 9 9 10 9 9 8 7 6 3 2 2 1 2 3 5 7 8 7 7 6 7 7 7 7 8 8 7 7 8 9 11 13 15 16 16 16 16 17 17 17 18 19 19 18 18 18 18
18 18 18 17 15 15 13 12 11 10 11 11 11 10 11 11 10 9 9 8 8 9 9 7 4 1 3 5 4 3 5 8 8 7 6 6 5 7 6 6 7 6 5 7 10 9 10 14 16 16 15 15 17 20 22 20 19 19 19 20 22 22 21
19 18 18 17 17 17 16 14 13 11 11 12 11 11 11 11 10 10 11 9 8 8 8 6 3 2 3 5 5 3 5 7 6 4 5 4 4 6 6 6 8 8 6 7 10 11 13 16 16 15 14 15 17 19 20 20 18 16 16 18 21 22 23
20 19 17 16 15 16 16 15 13 12 13 12 11 11 11 10 10 11 11 10 7 7 7 6 5 4 4 4 5 2 2 3 2 3 4 4 4 5 5 6 8 8 8 8 10 12 14 16 16 14 14 15 17 16 15 14 13 13 15 17 18 18 19
18 18 17 16 15 15 15 14 14 14 13 12 11 10 10 8 8 7 7 6 4 4 4 3 3 2 2 3 3 3 2 2 4 4 5 6 6 6 6 5 8 9 10 11 12 13 15 16 17 17 16 15 15 14 14 14 12 11 12 14 14 13 13
16 16 16 16 15 14 14 14 14 12 10 9 9 9 7 6 5 4 3 2 2 1 0 0 0 1 3 3 4 4 4 5 5 6 7 7 7 7 5 5 8 10 11 12 13 14 15 16 18 19 19 19 18 18 18 20 20 18 15 14 15 15 14
14 14 13 13 13 13 12 11 11 9 8 7 7 6 5 4 4 4 3 2 1 1 3 3 3 4 5 6 6 6 5 6 9 10 9 7 8 9 8 8 11 15 16 16 16 18 19 20 20 21 21 21 21 20 21 22 23 22 19 16 17 17 17
13 12 12 11 10 10 9 8 7 6 6 5 5 4 4 4 4 4 3 3 2 2 1 3 5 6 7 7 7 6 5 4 6 7 7 6 7 8 7 7 10 14 17 19 21 22 23 23 22 22 21 21 20 19 20 21 22 22 20 19 18 19 19
11 11 10 10 9 9 8 6 5 5 3 3 3 3 3 2 2 2 2 3 3 3 2 1 5 8 9 8 8 8 7 6 5 5 6 7 7 7 8 10 13 15 18 21 23 24 24 23 21 20 19 18 17 18 18 20 21 21 20 20 19 20 22
Wind_Direction
170 172 190 198 205 215 194 163 168 168 164 166 167 174 174 175 176 175 180 181 182 183 181 183 178 174 177 176 177 183 189 197 189 208 213 181 180 190 177 180 188 159 156 154 157 159 142 133 130 122 113 100 87 81 84 89 97 101 106 109 104 102 99
172 184 187 194 208 204 178 166 168 162 164 165 168 175 173 173 173 170 179 183 183 187 187 187 178 170 171 170 171 174 178 191 175 178 205 180 173 190 185 191 188 196 174 140 143 168 144 138 148 141 130 112 92 87 90 96 99 98 104 105 103 104 100
178 180 172 189 210 196 169 169 170 162 165 167 168 174 171 170 172 169 179 183 178 186 188 181 172 168 168 166 169 172 169 179 177 168 194 179 160 173 193 219 188 126 352 118 137 164 159 122 144 151 142 126 107 103 107 111 108 105 108 105 106 107 101
181 165 163 195 205 184 173 172 169 168 169 168 166 172 173 169 170 168 175 179 174 182 185 177 169 166 170 168 168 173 170 173 173 170 196 200 183 174 174 218 194 130 90 235 157 163 153 125 144 149 139 128 120 120 121 121 116 113 111 109 111 107 101
176 159 168 201 197 178 180 175 169 171 169 171 171 171 173 171 167 162 160 168 171 175 178 182 174 164 169 172 173 175 169 170 172 168 181 187 187 185 165 172 188 149 155 202 187 155 144 150 159 142 133 133 126 122 126 130 122 115 114 115 112 107 104
167 163 178 199 192 182 182 176 176 175 170 175 177 175 174 169 164 158 155 163 168 168 165 174 178 171 172 174 176 175 167 170 175 173 181 179 177 179 164 166 175 153 157 159 150 134 138 153 159 139 133 135 130 128 136 141 131 123 122 118 113 112 111
169 173 188 196 189 185 182 181 184 178 173 175 175 176 173 167 164 159 156 155 153 159 156 159 172 177 178 173 175 172 166 172 173 176 187 177 175 176 168 172 165 154 163 156 145 139 138 145 145 139 136 133 134 135 139 143 137 127 122 118 116 116 113
174 181 198 194 187 187 183 184 186 180 176 174 172 171 167 164 161 154 151 145 141 148 150 156 164 168 171 168 171 171 167 169 170 175 180 171 174 174 166 169 162 155 163 156 146 144 142 137 136 142 144 144 143 136 136 141 134 123 121 122 121 118 117
173 188 204 189 183 188 183 183 186 180 173 170 168 165 165 166 159 153 150 144 145 147 147 156 158 155 163 163 166 171 167 166 166 170 171 168 169 164 164 171 164 163 164 145 132 118 124 134 139 144 150 152 144 135 144 144 128 125 133 133 126 125 128
170 185 194 182 180 185 182 182 181 175 170 168 166 165 167 165 160 158 151 145 152 150 150 160 155 150 153 156 157 156 155 155 159 164 164 166 164 160 169 175 164 168 158 133 129 120 122 133 140 147 154 153 144 142 153 144 127 139 148 143 138 138 138
170 177 182 179 180 181 180 179 176 171 167 166 165 167 170 165 163 162 150 150 159 155 157 161 153 151 148 146 148 145 149 154 153 159 161 162 163 161 169 170 159 160 142 130 134 130 126 135 147 162 163 155 157 159 153 144 140 150 155 153 148 147 146
174 176 175 176 177 177 177 174 172 169 164 166 166 167 170 167 164 160 153 157 163 161 164 160 153 155 149 148 150 147 152 155 151 158 164 165 168 166 169 167 154 149 141 137 138 133 134 145 157 160 134 112 139 142 133 135 138 142 153 154 147 150 155
179 173 168 172 175 175 175 172 171 169 166 167 168 168 170 168 164 161 158 160 165 166 167 163 159 158 153 154 156 150 152 154 149 149 156 166 173 168 164 160 151 148 148 145 140 138 143 150 146 132 112 101 112 121 130 134 133 138 153 154 147 156 162
177 170 164 170 173 174 175 172 171 171 170 170 170 171 171 167 165 165 162 161 166 169 168 165 162 160 157 157 155 152 155 158 145 136 141 150 158 159 155 150 148 150 150 145 142 143 145 145 135 127 127 130 132 145 152 138 134 140 152 158 161 164 165
171 166 162 167 173 176 175 173 173 174 175 175 174 175 172 168 168 168 165 165 165 169 170 166 164 163 159 156 154 159 164 159 142 130 135 139 140 148 148 141 141 145 144 141 144 147 147 153 151 139 136 138 140 166 251 136 141 149 156 167 177 172 168
165 164 164 168 174 178 176 173 173 175 178 178 179 179 172 168 171 170 167 166 165 171 172 168 168 166 160 159 160 164 164 154 142 138 140 141 139 140 140 136 136 139 140 144 150 150 154 172 171 148 144 141 141 158 262 131 149 157 164 173 186 181 175
166 165 166 171 174 176 174 169 170 174 178 180 180 179 172 169 173 170 168 167 165 170 171 168 172 169 164 168 168 166 166 159 157 156 149 146 143 139 138 138 137 140 142 144 146 145 157 181 173 150 155 152 151 166 186 206 189 175 170 176 194 195 179
167 166 167 169 171 172 168 165 169 171 174 178 177 174 172 173 174 170 169 169 165 169 172 172 175 171 167 170 169 170 173 169 168 164 150 146 146 146 148 147 144 145 147 146 149 154 164 179 176 167 175 175 167 165 169 203 218 205 188 186 201 211 191
170 167 164 164 166 168 164 163 166 165 169 175 174 173 175 174 174 172 172 172 167 168 172 174 174 170 167 167 166 167 169 168 168 159 149 148 148 150 154 152 149 151 154 156 161 162 159 173 195 177 194 240 203 152 158 200 211 208 213 201 197 217 214
168 164 160 160 163 163 161 160 160 161 167 170 170 176 178 173 174 174 171 172 169 166 170 173 173 169 166 164 161 161 163 165 163 157 158 155 150 154 155 152 154 160 166 167 165 167 162 169 205 182 206 274 282 135 157 206 208 205 216 209 202 216 221
158 158 157 158 161 161 160 159 159 158 160 162 168 176 175 172 175 173 169 169 166 163 163 164 165 168 169 165 161 160 162 164 161 158 163 156 150 157 156 155 162 162 160 156 147 155 163 163 185 192 194 244 270 178 206 220 214 213 215 214 215 219 220
150 155 155 158 162 163 160 159 157 155 152 155 165 173 172 172 171 164 162 162 157 154 153 155 159 162 159 160 165 167 166 168 166 163 163 156 156 164 158 156 164 161 160 165 160 162 171 176 178 159 163 201 229 238 241 237 233 233 229 226 228 228 226
138 146 152 157 159 159 159 157 153 151 150 149 155 163 164 166 169 164 160 154 146 145 145 152 159 155 146 155 168 174 172 172 172 172 173 168 167 174 169 164 174 182 184 187 189 188 189 192 196 185 156 178 209 244 257 255 251 251 253 250 243 239 236
134 133 142 150 152 154 155 153 148 143 142 141 144 153 154 148 146 148 146 139 138 140 140 152 164 163 152 153 149 152 171 179 179 181 183 181 182 188 191 188 189 198 202 196 194 197 193 191 199 207 204 202 220 244 259 265 264 263 266 269 263 255 250
127 122 125 130 131 132 134 134 131 124 120 120 127 141 142 113 90 97 111 119 128 133 134 153 172 177 171 166 130 105 159 185 186 195 199 198 203 201 201 205 200 198 204 202 201 205 208 209 212 217 222 223 229 239 245 252 261 265 270 277 275 268 265
111 113 114 113 114 117 118 117 118 118 118 118 122 125 119 107 105 103 97 98 108 122 131 149 169 183 197 205 202 223 281 236 200 209 214 218 230 229 227 229 223 218 218 212 214 224 231 237 241 242 244 245 246 251 251 252 254 257 263 273 274 270 270
108 115 121 122 121 118 115 110 109 115 119 118 117 115 107 111 132 143 129 125 135 137 133 136 152 177 200 232 248 257 277 279 248 238 237 238 248 253 255 251 242 242 242 229 225 236 245 252 252 248 248 250 251 252 252 254 258 257 257 259 261 265 269
110 118 125 131 131 122 116 115 114 118 122 116 112 111 108 113 128 133 133 140 142 131 122 118 130 167 176 220 268 272 276 271 261 258 253 249 251 253 255 259 259 260 262 268 259 241 242 256 268 268 264 259 259 260 257 256 257 258 258 257 257 260 263
111 115 118 125 129 122 116 117 123 135 145 143 136 131 123 118 122 126 126 133 136 130 123 122 121 108 79 16 301 292 283 269 260 256 254 249 248 252 256 256 259 267 277 276 270 254 242 252 266 273 272 269 274 277 274 266 260 255 253 252 253 254 254
101 106 110 110 110 108 103 101 107 120 132 134 135 138 134 124 121 125 126 129 133 132 126 122 126 135 340 326 306 290 285 274 263 260 261 257 259 265 264 260 267 288 304 281 271 271 263 259 264 270 273 274 275 274 275 275 269 260 253 251 253 255 256
94 96 100 102 104 105 104 101 99 103 113 117 117 123 125 119 120 129 132 126 121 121 121 116 124 180 250 269 253 258 298 286 268 270 274 270 281 286 281 281 290 299 297 276 271 271 268 267 270 275 280 278 270 269 274 273 269 268 266 257 254 257 261
96 95 92 91 96 104 108 108 108 113 119 119 117 120 119 114 120 129 129 121 109 102 108 110 113 138 175 208 210 213 334 335 337 346 336 328 327 326 321 308 301 299 293 285 281 274 269 268 268 271 280 283 276 273 278 275 272 281 278 263 256 261 266
86 93 94 92 95 103 108 111 115 119 120 119 123 129 128 125 128 130 125 121 107 85 94 113 123 141 193 226 226 215 223 358 16 4 340 332 329 330 338 331 311 303 297 290 287 281 275 272 271 269 271 280 282 282 286 288 286 288 282 269 262 262 262
73 79 85 90 94 100 105 107 107 106 106 108 118 127 128 124 122 119 117 127 136 131 329 255 236 287 293 296 300 288 265 266 282 294 299 304 302 298 305 316 305 295 291 290 291 290 287 288 289 284 278 279 281 281 285 288 285 283 286 283 272 264 260
69 70 73 80 86 89 94 98 96 93 93 97 104 113 120 118 112 105 97 88 83 353 328 329 325 316 313 310 311 317 301 263 265 285 304 309 297 287 284 288 282 275 276 284 289 291 294 294 293 291 288 288 288 286 284 284 281 280 281 279 272 267 263
67 67 68 73 79 82 86 91 91 93 102 111 119 125 133 139 137 134 138 139 123 96 13 341 347 352 346 335 330 333 333 294 269 280 293 296 294 292 288 281 269 262 265 273 277 282 288 290 289 289 289 290 291 290 286 283 280 277 273 270 268 266 263
64 65 66 68 73 75 78 83 88 91 98 113 126 130 132 144 154 149 144 144 134 119 120 0 353 4 9 6 4 2 359 350 329 305 292 287 290 290 277 266 263 263 266 271 275 279 283 286 288 289 289 290 292 293 293 290 287 282 275 270 266 261 259